| time (UTC) | temp F | wind direction | speed knots | gust knots | rain 1hr in | rain 24hr in | rain mn in | humidity % | barometer mb |
| 20260503072102 | 66 | 49 | 2.6 | 5.2 | 0.00 | 0.00 | 0.09 | 98 | 1015.9 |
| 20260503070602 | 67 | 49 | 2.6 | 4.3 | 0.00 | 0.00 | 0.09 | 98 | 1016.3 |
| 20260503054602 | 70 | 354 | 6.1 | 7.8 | 0.02 | 0.00 | 0.08 | 98 | 1016.3 |
| 20260503051601 | 70 | 345 | 0.0 | 0.0 | 0.03 | 0.00 | 0.06 | 98 | 1016.6 |
| 20260503044602 | 70 | 44 | 2.6 | 4.3 | 0.07 | 0.00 | 0.05 | 97 | 1016.3 |
| 20260503041601 | 71 | 267 | 0.0 | 0.0 | 0.10 | 0.00 | 0.03 | 97 | 1016.3 |
| 20260503035605 | 71 | 246 | 0.0 | 0.0 | 0.05 | 0.00 | 0.64 | 96 | 1013.5 |
| 20260503034601 | 71 | 310 | 0.0 | 6.1 | 0.04 | 0.00 | 0.63 | 96 | 1013.5 |
| 20260503033102 | 71 | 229 | 0.0 | 0.0 | 0.00 | 0.00 | 0.59 | 96 | 1013.5 |
| 20260503024602 | 71 | 160 | 0.0 | 0.0 | 0.00 | 0.00 | 0.59 | 96 | 1013.5 |
| 20260503023102 | 71 | 208 | 0.9 | 2.6 | 0.00 | 0.00 | 0.59 | 96 | 1013.5 |
| 20260503021602 | 71 | 193 | 0.0 | 3.5 | 0.00 | 0.00 | 0.59 | 97 | 1013.5 |
| 20260503014602 | 71 | 251 | 0.0 | 0.0 | 0.00 | 0.00 | 0.59 | 97 | 1013.5 |
| 20260503012602 | 71 | 265 | 0.0 | 0.9 | 0.00 | 0.00 | 0.59 | 97 | 1013.5 |
| 20260503011601 | 70 | 246 | 0.0 | 1.7 | 0.00 | 0.00 | 0.59 | 97 | 1013.5 |
| 20260503004602 | 70 | 163 | 0.9 | 4.3 | 0.00 | 0.00 | 0.59 | 98 | 1013.5 |
| 20260503003601 | 71 | 70 | 0.0 | 3.5 | 0.00 | 0.00 | 0.59 | 98 | 1013.5 |
| 20260503002103 | 71 | 263 | 0.9 | 2.6 | 0.01 | 0.00 | 0.59 | 98 | 1013.5 |
| 20260503000603 | 71 | 55 | 0.0 | 0.9 | 0.01 | 0.00 | 0.59 | 98 | 1013.5 |
| 20260502235102 | 71 | 237 | 0.0 | 2.6 | 0.02 | 0.00 | 0.59 | 98 | 1013.5 |
| 20260502233602 | 71 | 92 | 0.0 | 3.5 | 0.01 | 0.00 | 0.57 | 98 | 1013.5 |
| 20260502232601 | 71 | 197 | 0.0 | 3.5 | 0.02 | 0.00 | 0.57 | 98 | 1013.5 |
| 20260502231102 | 71 | 84 | 0.0 | 1.7 | 0.03 | 0.00 | 0.57 | 98 | 1013.5 |
| 20260502225602 | 71 | 247 | 0.0 | 0.9 | 0.03 | 0.00 | 0.56 | 98 | 1013.5 |
| 20260502224102 | 71 | 170 | 0.9 | 2.6 | 0.04 | 0.00 | 0.56 | 97 | 1013.5 |
| 20260502222602 | 72 | 111 | 5.2 | 5.2 | 0.04 | 0.00 | 0.56 | 97 | 1013.5 |
| 20260502215602 | 72 | 143 | 4.3 | 4.3 | 0.05 | 0.00 | 0.53 | 96 | 1012.9 |
| 20260502214101 | 72 | 176 | 0.0 | 2.6 | 0.04 | 0.00 | 0.52 | 96 | 1012.2 |
| 20260502212602 | 72 | 155 | 0.0 | 0.0 | 0.04 | 0.00 | 0.52 | 96 | 1012.5 |
| 20260502205601 | 72 | 203 | 0.0 | 0.0 | 0.00 | 0.00 | 0.48 | 94 | 1012.9 |
| 20260502204102 | 72 | 190 | 2.6 | 2.6 | 0.48 | 0.00 | 0.48 | 94 | 1013.2 |
| 20260502203101 | 72 | 242 | 0.0 | 2.6 | 0.48 | 0.00 | 0.48 | 94 | 1012.9 |
| 20260502201601 | 71 | 247 | 4.3 | 6.1 | 0.48 | 0.00 | 0.48 | 92 | 1012.9 |
| 20260502195102 | 74 | 282 | 14.8 | 17.4 | 0.21 | 0.00 | 0.21 | 85 | 1013.5 |
| 20260502193601 | 80 | 263 | 3.5 | 6.1 | 0.00 | 0.00 | 0.00 | 85 | 1012.9 |
| 20260502192103 | 81 | 170 | 3.5 | 6.1 | 0.00 | 0.00 | 0.00 | 84 | 1013.2 |
| 20260502190601 | 81 | 243 | 3.5 | 6.1 | 0.00 | 0.00 | 0.00 | 82 | 1013.2 |
| 20260502183602 | 82 | 223 | 4.3 | 5.2 | 0.00 | 0.00 | 0.00 | 81 | 1013.5 |
| 20260502182101 | 82 | 225 | 2.6 | 7.8 | 0.00 | 0.00 | 0.00 | 79 | 1013.5 |
| 20260502164102 | 85 | 212 | 6.1 | 7.8 | 0.00 | 0.00 | 0.00 | 75 | 1013.5 |
| 20260502162602 | 84 | 69 | 4.3 | 9.6 | 0.00 | 0.00 | 0.00 | 75 | 1013.5 |
| 20260502161102 | 85 | 189 | 3.5 | 10.4 | 0.00 | 0.00 | 0.00 | 74 | 1013.5 |
| 20260502151102 | 88 | 173 | 7.8 | 9.6 | 0.00 | 0.00 | 0.00 | 67 | 1013.2 |
| 20260502123101 | 72 | 111 | 2.6 | 5.2 | 0.00 | 0.00 | 0.00 | 95 | 1012.2 |
| 20260502121602 | 71 | 50 | 3.5 | 5.2 | 0.00 | 0.00 | 0.00 | 96 | 1012.2 |
| 20260502113101 | 68 | 144 | 2.6 | 2.6 | 0.00 | 0.00 | 0.00 | 99 | 1012.5 |
| 20260502111602 | 68 | 156 | 0.0 | 0.0 | 0.00 | 0.00 | 0.00 | 99 | 1012.2 |
| 20260502104601 | 67 | 132 | 0.0 | 0.0 | 0.00 | 0.00 | 0.00 | 99 | 1011.9 |
| 20260502103102 | 68 | 118 | 0.0 | 0.0 | 0.00 | 0.00 | 0.00 | 99 | 1011.9 |
| 20260502101602 | 68 | 137 | 0.0 | 0.0 | 0.00 | 0.00 | 0.00 | 98 | 1011.5 |